Weather History for Waukesha, WI

Change the Weather History Date:

Wednesday, August 27, 2014

  Actual Average Record
Temperature  
Mean Temperature 63 °F -  
Max Temperature 71 °F 79 °F 96 °F (1953)
Min Temperature 55 °F 61 °F 48 °F (1968)
Degree Days  
Heating Degree Days 2    
Growing Degree Days 13 (Base 50)    
Moisture  
Dew Point 57 °F    
Average Humidity 83    
Maximum Humidity 100    
Minimum Humidity 60    
Precipitation  
Precipitation 0.00 in - - ()
Sea Level Pressure  
Sea Level Pressure 30.16 in    
Wind  
Wind Speed 1 mph (NE)    
Max Wind Speed 7 mph    
Max Gust Speed -    
Visibility 10 miles    
Events      
Averages and records for this station are not official NWS values.
T = Trace of Precipitation, MM = Missing Value Source: NWS Daily Summary

Daily Weather History Graph

Daily Weather History Graph

Search for Another Location

Airport:

Trip Planner

Search our weather history database for the weather conditions in past years. The results will help you decide how hot, cold, wet, or windy it might be!

Date:

Astronomy

Aug. 27, 2014 Rise Set
Actual Time 6:11 AM CDT 7:36 PM CDT
Civil Twilight 5:42 AM CDT 8:05 PM CDT
Nautical Twilight 5:06 AM CDT 8:41 PM CDT
Astronomical Twilight 4:28 AM CDT 9:18 PM CDT
Moon 8:11 AM CDT (8/27) 8:23 PM CDT (8/27)
Length of Visible Light 14h 23m
Length of Day
13h 24m
Waxing Crescent, 4% of the Moon is Illuminated
Aug 27
Waxing Crescent
Sep 2
First Quarter
Sep 8
Full
Sep 15
Last Quarter
Sep 24
New

Hourly Weather History & Observations

Time (CDT) Temp. Dew Point Humidity Pressure Visibility Wind Dir Wind Speed Gust Speed Precip Events Conditions
12:15 AM 60.8 °F 55.4 °F 82% 30.15 in 10.0 mi Calm Calm - N/A   Clear
12:35 AM 60.8 °F 55.4 °F 82% 30.15 in 10.0 mi Calm Calm - N/A   Clear
12:55 AM 60.8 °F 55.4 °F 82% 30.15 in 10.0 mi Calm Calm - N/A   Clear
1:15 AM 60.8 °F 55.4 °F 82% 30.15 in 10.0 mi Calm Calm - N/A   Clear
1:35 AM 60.8 °F 55.4 °F 82% 30.15 in 10.0 mi Calm Calm - N/A   Clear
1:55 AM 60.8 °F 55.4 °F 82% 30.14 in 10.0 mi Calm Calm - N/A   Clear
2:15 AM 60.8 °F 55.4 °F 82% 30.15 in 10.0 mi WNW 4.6 mph - N/A   Scattered Clouds
2:35 AM 60.8 °F 55.4 °F 82% 30.15 in 10.0 mi Calm Calm - N/A   Clear
2:55 AM 60.8 °F 55.4 °F 82% 30.15 in 10.0 mi Calm Calm - N/A   Clear
3:15 AM 60.8 °F 55.4 °F 82% 30.15 in 10.0 mi Calm Calm - N/A   Clear
3:35 AM 60.8 °F 55.4 °F 82% 30.16 in 10.0 mi Calm Calm - N/A   Scattered Clouds
3:55 AM 60.8 °F 55.4 °F 82% 30.15 in 10.0 mi Calm Calm - N/A   Mostly Cloudy
4:15 AM 60.8 °F 55.4 °F 82% 30.15 in 10.0 mi Calm Calm - N/A   Mostly Cloudy
4:35 AM 60.8 °F 55.4 °F 82% 30.15 in 10.0 mi Calm Calm - N/A   Mostly Cloudy
4:55 AM 60.8 °F 55.4 °F 82% 30.16 in 10.0 mi NNW 3.5 mph - N/A   Mostly Cloudy
5:15 AM 60.8 °F 55.4 °F 82% 30.16 in 10.0 mi Calm Calm - N/A   Mostly Cloudy
5:35 AM 59.0 °F 55.4 °F 88% 30.16 in 10.0 mi Calm Calm - N/A   Scattered Clouds
5:45 AM 60.8 °F 55.4 °F 82% 30.16 in 10.0 mi NW 3.5 mph - N/A   Scattered Clouds
6:45 AM 60.8 °F 55.4 °F 82% 30.18 in 10.0 mi NW 3.5 mph - N/A   Scattered Clouds
7:45 AM 62.6 °F 57.2 °F 82% 30.17 in 10.0 mi NE 3.5 mph - N/A   Scattered Clouds
8:45 AM 64.4 °F 57.2 °F 77% 30.18 in 10.0 mi NE 3.5 mph - N/A   Scattered Clouds
9:45 AM 66.2 °F 59.0 °F 78% 30.18 in 10.0 mi NNE 3.5 mph - N/A   Scattered Clouds
12:45 PM 71.6 °F 57.2 °F 60% 30.18 in 10.0 mi NNE 4.6 mph - N/A   Mostly Cloudy
1:45 PM 71.6 °F 60.8 °F 69% 30.18 in 10.0 mi ENE 4.6 mph - N/A   Mostly Cloudy
2:45 PM 71.6 °F 60.8 °F 69% 30.18 in 10.0 mi ESE 5.8 mph - N/A   Mostly Cloudy
3:45 PM 71.6 °F 60.8 °F 69% 30.17 in 10.0 mi East 6.9 mph - N/A   Overcast
4:45 PM 71.6 °F 60.8 °F 69% 30.16 in 10.0 mi East 4.6 mph - N/A   Mostly Cloudy
5:45 PM 69.8 °F 60.8 °F 73% 30.15 in 10.0 mi East 5.8 mph - N/A   Mostly Cloudy
6:45 PM 66.2 °F 60.8 °F 83% 30.14 in 10.0 mi East 6.9 mph - N/A   Mostly Cloudy
7:45 PM 64.4 °F 60.8 °F 88% 30.13 in 10.0 mi East 6.9 mph - N/A   Mostly Cloudy
8:45 PM 62.6 °F 59.0 °F 88% 30.14 in 10.0 mi East 4.6 mph - N/A   Scattered Clouds
9:15 PM 60.8 °F 59.0 °F 94% 30.15 in 10.0 mi East 3.5 mph - N/A   Clear
9:35 PM 60.8 °F 57.2 °F 88% 30.16 in 10.0 mi Calm Calm - N/A   Clear
9:55 PM 59.0 °F 57.2 °F 94% 30.16 in 10.0 mi East 3.5 mph - N/A   Clear
10:15 PM 59.0 °F 57.2 °F 94% 30.16 in 10.0 mi Calm Calm - N/A   Clear
10:35 PM 59.0 °F 57.2 °F 94% 30.17 in 10.0 mi Calm Calm - N/A   Clear
10:55 PM 59.0 °F 55.4 °F 88% 30.17 in 10.0 mi Calm Calm - N/A   Clear
11:15 PM 57.2 °F 55.4 °F 94% 30.17 in 10.0 mi Calm Calm - N/A   Clear
11:35 PM 55.4 °F 53.6 °F 94% 30.17 in 10.0 mi Calm Calm - N/A   Clear
11:55 PM 55.4 °F 55.4 °F 100% 30.17 in 10.0 mi Calm Calm - N/A   Clear